| time (UTC) | temp C | wind direction | speed KPH | gust KPH | rain 1hr cm | rain 24hr cm | rain mn cm | humidity % | barometer mb |
| 20260508125933 | 12 | 20 | 8.0 | 9.7 | 0.00 | 0.00 | 0.00 | 70 | 1012.6 |
| 20260508125429 | 11 | 318 | 6.4 | 11.3 | 0.00 | 0.00 | 0.00 | 69 | 1012.4 |
| 20260508124927 | 11 | 344 | 0.0 | 4.8 | 0.00 | 0.00 | 0.00 | 71 | 1012.6 |
| 20260508124425 | 10 | 14 | 4.8 | 6.4 | 0.00 | 0.00 | 0.00 | 73 | 1012.4 |
| 20260508123922 | 10 | 3 | 3.2 | 6.4 | 0.00 | 0.00 | 0.00 | 73 | 1012.5 |
| 20260508123421 | 10 | 35 | 0.0 | 6.4 | 0.00 | 0.00 | 0.00 | 73 | 1012.5 |
| 20260508122917 | 10 | 317 | 6.4 | 6.4 | 0.00 | 0.00 | 0.00 | 73 | 1012.6 |
| 20260508122414 | 10 | 23 | 4.8 | 6.4 | 0.00 | 0.00 | 0.00 | 74 | 1012.6 |
| 20260508121911 | 10 | 13 | 4.8 | 9.7 | 0.00 | 0.00 | 0.00 | 75 | 1012.4 |
| 20260508121409 | 10 | 23 | 6.4 | 9.7 | 0.00 | 0.00 | 0.00 | 76 | 1012.3 |
| 20260508120906 | 10 | 345 | 1.6 | 6.4 | 0.00 | 0.00 | 0.00 | 77 | 1012.4 |
| 20260508120404 | 10 | 354 | 4.8 | 8.0 | 0.00 | 0.00 | 0.00 | 77 | 1012.5 |
| 20260508115901 | 9 | 23 | 4.8 | 8.0 | 0.00 | 0.00 | 0.00 | 79 | 1012.2 |
| 20260508115359 | 9 | 42 | 4.8 | 6.4 | 0.00 | 0.00 | 0.00 | 80 | 1012.2 |
| 20260508114855 | 9 | 50 | 6.4 | 8.0 | 0.00 | 0.00 | 0.00 | 81 | 1012.0 |
| 20260508114352 | 9 | 16 | 4.8 | 6.4 | 0.00 | 0.00 | 0.00 | 80 | 1012.1 |
| 20260508113849 | 9 | 7 | 3.2 | 6.4 | 0.00 | 0.00 | 0.00 | 80 | 1011.8 |
| 20260508113347 | 9 | 10 | 4.8 | 6.4 | 0.00 | 0.00 | 0.00 | 80 | 1012.0 |
| 20260508112844 | 8 | 60 | 3.2 | 6.4 | 0.00 | 0.00 | 0.00 | 80 | 1012.1 |
| 20260508112341 | 8 | 40 | 3.2 | 4.8 | 0.00 | 0.00 | 0.00 | 81 | 1011.8 |
| 20260508111837 | 8 | 23 | 3.2 | 4.8 | 0.00 | 0.00 | 0.00 | 80 | 1011.8 |
| 20260508111334 | 8 | 34 | 3.2 | 6.4 | 0.00 | 0.00 | 0.00 | 79 | 1011.6 |
| 20260508110831 | 9 | 22 | 4.8 | 6.4 | 0.00 | 0.00 | 0.00 | 79 | 1011.6 |
| 20260508110329 | 9 | 357 | 4.8 | 6.4 | 0.00 | 0.00 | 0.00 | 78 | 1011.8 |
| 20260508105829 | 9 | 8 | 6.4 | 8.0 | 0.00 | 0.00 | 0.00 | 77 | 1011.4 |
| 20260508105326 | 9 | 17 | 4.8 | 6.4 | 0.00 | 0.00 | 0.00 | 76 | 1011.7 |
| 20260508104822 | 9 | 10 | 3.2 | 6.4 | 0.00 | 0.00 | 0.00 | 76 | 1011.8 |
| 20260508104319 | 9 | 8 | 4.8 | 6.4 | 0.00 | 0.00 | 0.00 | 75 | 1011.5 |
| 20260508103817 | 9 | 359 | 6.4 | 8.0 | 0.00 | 0.00 | 0.00 | 75 | 1011.7 |
| 20260508103313 | 9 | 356 | 6.4 | 9.7 | 0.00 | 0.00 | 0.00 | 75 | 1011.4 |
| 20260508102811 | 8 | 108 | 4.8 | 9.7 | 0.00 | 0.00 | 0.00 | 76 | 1011.5 |
| 20260508102309 | 8 | 341 | 6.4 | 9.7 | 0.00 | 0.00 | 0.00 | 76 | 1011.5 |
| 20260508101806 | 8 | 14 | 6.4 | 9.7 | 0.00 | 0.00 | 0.00 | 76 | 1011.5 |
| 20260508101303 | 8 | 12 | 6.4 | 14.5 | 0.00 | 0.00 | 0.00 | 77 | 1011.4 |
| 20260508100801 | 8 | 357 | 8.0 | 9.7 | 0.00 | 0.00 | 0.00 | 80 | 1011.6 |
| 20260508100259 | 8 | 24 | 4.8 | 9.7 | 0.00 | 0.00 | 0.00 | 82 | 1011.6 |
| 20260508095754 | 8 | 9 | 4.8 | 8.0 | 0.00 | 0.00 | 0.00 | 83 | 1011.7 |
| 20260508095252 | 8 | 33 | 6.4 | 9.7 | 0.00 | 0.00 | 0.00 | 82 | 1011.7 |
| 20260508094749 | 7 | 12 | 4.8 | 8.0 | 0.00 | 0.00 | 0.00 | 83 | 1011.7 |
| 20260508094246 | 7 | 17 | 3.2 | 6.4 | 0.00 | 0.00 | 0.00 | 84 | 1011.5 |
| 20260508093743 | 7 | 45 | 4.8 | 6.4 | 0.00 | 0.00 | 0.00 | 85 | 1011.5 |
| 20260508093241 | 7 | 40 | 1.6 | 4.8 | 0.00 | 0.00 | 0.00 | 85 | 1011.6 |
| 20260508092737 | 7 | 34 | 3.2 | 3.2 | 0.00 | 0.00 | 0.00 | 85 | 1011.6 |
| 20260508092236 | 7 | 46 | 4.8 | 6.4 | 0.00 | 0.00 | 0.00 | 85 | 1011.8 |
| 20260508091733 | 7 | 350 | 3.2 | 6.4 | 0.00 | 0.00 | 0.00 | 84 | 1011.6 |
| 20260508091230 | 7 | 56 | 3.2 | 4.8 | 0.00 | 0.00 | 0.00 | 84 | 1011.8 |
| 20260508090728 | 7 | 18 | 3.2 | 8.0 | 0.00 | 0.00 | 0.00 | 84 | 1011.7 |
| 20260508090225 | 7 | 31 | 3.2 | 6.4 | 0.00 | 0.00 | 0.00 | 84 | 1011.8 |
| 20260508085721 | 7 | 23 | 3.2 | 8.0 | 0.00 | 0.00 | 0.00 | 84 | 1011.8 |
| 20260508085219 | 7 | 16 | 3.2 | 8.0 | 0.00 | 0.00 | 0.00 | 84 | 1011.8 |
| 20260508084714 | 7 | 27 | 4.8 | 8.0 | 0.00 | 0.00 | 0.00 | 84 | 1011.9 |
| 20260508084212 | 7 | 27 | 6.4 | 9.7 | 0.00 | 0.00 | 0.00 | 83 | 1011.9 |
| 20260508083709 | 7 | 70 | 4.8 | 9.7 | 0.00 | 0.00 | 0.00 | 83 | 1011.7 |
| 20260508083207 | 7 | 16 | 3.2 | 9.7 | 0.00 | 0.00 | 0.00 | 82 | 1011.9 |
| 20260508082701 | 7 | 40 | 4.8 | 11.3 | 0.00 | 0.00 | 0.00 | 82 | 1012.0 |
| 20260508082159 | 7 | 37 | 4.8 | 9.7 | 0.00 | 0.00 | 0.00 | 82 | 1012.0 |
| 20260508081657 | 7 | 30 | 4.8 | 8.0 | 0.00 | 0.00 | 0.00 | 83 | 1012.0 |
| 20260508081153 | 7 | 16 | 4.8 | 8.0 | 0.00 | 0.00 | 0.00 | 83 | 1012.1 |
| 20260508080650 | 7 | 27 | 6.4 | 6.4 | 0.00 | 0.00 | 0.00 | 83 | 1012.0 |
| 20260508080149 | 7 | 42 | 4.8 | 9.7 | 0.00 | 0.00 | 0.00 | 83 | 1012.0 |
| 20260508075644 | 7 | 40 | 4.8 | 6.4 | 0.00 | 0.00 | 0.00 | 83 | 1012.1 |
| 20260508075142 | 7 | 14 | 4.8 | 6.4 | 0.00 | 0.00 | 0.00 | 82 | 1011.9 |
| 20260508074639 | 7 | 21 | 4.8 | 9.7 | 0.00 | 0.00 | 0.00 | 82 | 1012.1 |
| 20260508074136 | 7 | 16 | 3.2 | 8.0 | 0.00 | 0.00 | 0.00 | 82 | 1011.9 |
| 20260508073633 | 7 | 17 | 4.8 | 9.7 | 0.00 | 0.00 | 0.00 | 81 | 1012.2 |
| 20260508073131 | 7 | 20 | 9.7 | 9.7 | 0.00 | 0.00 | 0.00 | 81 | 1012.1 |
| 20260508072627 | 7 | 37 | 4.8 | 12.9 | 0.00 | 0.00 | 0.00 | 81 | 1012.2 |
| 20260508072124 | 7 | 23 | 6.4 | 9.7 | 0.00 | 0.00 | 0.00 | 80 | 1012.3 |
| 20260508071621 | 8 | 332 | 3.2 | 8.0 | 0.00 | 0.00 | 0.00 | 79 | 1012.2 |
| 20260508071120 | 8 | 348 | 4.8 | 9.7 | 0.00 | 0.00 | 0.00 | 78 | 1012.1 |
| 20260508070617 | 8 | 341 | 3.2 | 11.3 | 0.00 | 0.00 | 0.00 | 76 | 1012.2 |
| 20260508070115 | 8 | 339 | 6.4 | 14.5 | 0.00 | 0.00 | 0.00 | 76 | 1012.4 |
| 20260508065612 | 8 | 34 | 6.4 | 11.3 | 0.00 | 0.00 | 0.00 | 75 | 1012.4 |
| 20260508065110 | 8 | 7 | 9.7 | 14.5 | 0.00 | 0.00 | 0.00 | 74 | 1012.2 |
| 20260508064607 | 9 | 304 | 6.4 | 16.1 | 0.00 | 0.00 | 0.00 | 73 | 1012.2 |
| 20260508064105 | 8 | 332 | 6.4 | 16.1 | 0.00 | 0.00 | 0.00 | 73 | 1012.1 |
| 20260508063603 | 8 | 358 | 4.8 | 11.3 | 0.00 | 0.00 | 0.00 | 72 | 1012.3 |
| 20260508063101 | 8 | 318 | 3.2 | 11.3 | 0.00 | 0.00 | 0.00 | 72 | 1012.3 |
| 20260508062558 | 8 | 359 | 6.4 | 9.7 | 0.00 | 0.00 | 0.00 | 73 | 1012.3 |
| 20260508062054 | 8 | 12 | 0.0 | 8.0 | 0.00 | 0.00 | 0.00 | 72 | 1012.2 |
| 20260508061552 | 8 | 41 | 8.0 | 11.3 | 0.00 | 0.00 | 0.00 | 72 | 1012.2 |
| 20260508061048 | 8 | 31 | 3.2 | 12.9 | 0.00 | 0.00 | 0.00 | 72 | 1012.3 |
| 20260508060545 | 8 | 50 | 6.4 | 6.4 | 0.00 | 0.00 | 0.00 | 73 | 1012.2 |
| 20260508060043 | 8 | 23 | 8.0 | 8.0 | 0.00 | 0.00 | 0.00 | 73 | 1012.3 |
| 20260508055538 | 8 | 47 | 3.2 | 6.4 | 0.00 | 0.00 | 0.00 | 73 | 1012.4 |
| 20260508055035 | 8 | 33 | 8.0 | 9.7 | 0.00 | 0.00 | 0.00 | 73 | 1012.4 |
| 20260508054532 | 8 | 50 | 3.2 | 8.0 | 0.00 | 0.00 | 0.00 | 72 | 1012.3 |
| 20260508054029 | 8 | 345 | 4.8 | 4.8 | 0.00 | 0.00 | 0.00 | 73 | 1012.6 |
| 20260508053526 | 8 | 61 | 6.4 | 6.4 | 0.00 | 0.00 | 0.00 | 72 | 1012.6 |
| 20260508053025 | 8 | 48 | 3.2 | 4.8 | 0.00 | 0.00 | 0.00 | 72 | 1012.6 |
| 20260508052521 | 8 | 308 | 3.2 | 6.4 | 0.00 | 0.00 | 0.00 | 72 | 1012.6 |
| 20260508052018 | 8 | 68 | 0.0 | 3.2 | 0.00 | 0.00 | 0.00 | 72 | 1012.8 |
| 20260508051514 | 8 | 329 | 0.0 | 3.2 | 0.00 | 0.00 | 0.00 | 72 | 1012.7 |
| 20260508051009 | 8 | 9 | 3.2 | 4.8 | 0.00 | 0.00 | 0.00 | 73 | 1012.9 |
| 20260508050506 | 8 | 57 | 1.6 | 4.8 | 0.00 | 0.00 | 0.00 | 73 | 1012.9 |
| 20260508050003 | 8 | 21 | 3.2 | 4.8 | 0.00 | 0.00 | 0.00 | 72 | 1012.9 |
| 20260508045500 | 8 | 38 | 1.6 | 4.8 | 0.00 | 0.00 | 0.00 | 71 | 1012.8 |
| 20260508044957 | 8 | 12 | 1.6 | 4.8 | 0.00 | 0.00 | 0.00 | 71 | 1012.8 |
| 20260508044454 | 8 | 343 | 3.2 | 6.4 | 0.00 | 0.00 | 0.00 | 71 | 1012.8 |
| 20260508043949 | 8 | 29 | 4.8 | 8.0 | 0.00 | 0.00 | 0.00 | 70 | 1012.7 |
| 20260508043447 | 8 | 54 | 4.8 | 6.4 | 0.00 | 0.00 | 0.00 | 70 | 1012.7 |
| 20260508042943 | 8 | 30 | 3.2 | 6.4 | 0.00 | 0.00 | 0.00 | 70 | 1012.8 |
| 20260508042441 | 8 | 13 | 4.8 | 8.0 | 0.00 | 0.00 | 0.00 | 70 | 1012.8 |
| 20260508041938 | 8 | 49 | 3.2 | 6.4 | 0.00 | 0.00 | 0.00 | 70 | 1012.9 |
| 20260508041434 | 8 | 22 | 3.2 | 6.4 | 0.00 | 0.00 | 0.00 | 69 | 1012.9 |
| 20260508040931 | 9 | 34 | 6.4 | 6.4 | 0.00 | 0.00 | 0.00 | 68 | 1012.8 |
| 20260508040429 | 9 | 23 | 4.8 | 9.7 | 0.00 | 0.00 | 0.00 | 68 | 1012.8 |
| 20260508035926 | 9 | 344 | 3.2 | 8.0 | 0.00 | 0.00 | 0.00 | 68 | 1012.8 |
| 20260508035423 | 9 | 353 | 6.4 | 9.7 | 0.00 | 0.00 | 0.00 | 68 | 1012.8 |
| 20260508034919 | 9 | 10 | 4.8 | 8.0 | 0.00 | 0.00 | 0.00 | 68 | 1012.8 |
| 20260508034417 | 9 | 14 | 6.4 | 9.7 | 0.00 | 0.00 | 0.00 | 67 | 1012.9 |
| 20260508033913 | 9 | 45 | 11.3 | 12.9 | 0.00 | 0.00 | 0.00 | 67 | 1013.0 |
| 20260508033412 | 10 | 24 | 8.0 | 11.3 | 0.00 | 0.00 | 0.00 | 65 | 1013.1 |
| 20260508032909 | 10 | 16 | 11.3 | 12.9 | 0.00 | 0.00 | 0.00 | 65 | 1012.9 |
| 20260508032406 | 10 | 347 | 6.4 | 9.7 | 0.00 | 0.00 | 0.00 | 66 | 1012.9 |
| 20260508031903 | 10 | 2 | 6.4 | 11.3 | 0.00 | 0.00 | 0.00 | 64 | 1013.0 |
| 20260508031400 | 10 | 24 | 6.4 | 9.7 | 0.00 | 0.00 | 0.00 | 65 | 1012.9 |
| 20260508030855 | 10 | 342 | 6.4 | 14.5 | 0.00 | 0.00 | 0.00 | 64 | 1013.1 |
| 20260508030353 | 10 | 12 | 14.5 | 14.5 | 0.00 | 0.00 | 0.00 | 64 | 1013.2 |
| 20260508025850 | 9 | 357 | 8.0 | 9.7 | 0.00 | 0.00 | 0.00 | 65 | 1013.1 |
| 20260508025347 | 9 | 336 | 6.4 | 9.7 | 0.00 | 0.00 | 0.00 | 67 | 1013.0 |
| 20260508024844 | 8 | 5 | 6.4 | 8.0 | 0.00 | 0.00 | 0.00 | 69 | 1013.2 |
| 20260508024340 | 8 | 5 | 3.2 | 4.8 | 0.00 | 0.00 | 0.00 | 70 | 1013.0 |
| 20260508023837 | 8 | 0 | 3.2 | 4.8 | 0.00 | 0.00 | 0.00 | 70 | 1013.0 |
| 20260508023334 | 8 | 17 | 3.2 | 4.8 | 0.00 | 0.00 | 0.00 | 70 | 1013.0 |
| 20260508022831 | 8 | 16 | 3.2 | 6.4 | 0.00 | 0.00 | 0.00 | 70 | 1013.0 |
| 20260508022326 | 8 | 41 | 3.2 | 9.7 | 0.00 | 0.00 | 0.00 | 68 | 1013.0 |
| 20260508021824 | 7 | 5 | 3.2 | 4.8 | 0.00 | 0.00 | 0.00 | 78 | 1012.9 |
| 20260508021319 | 6 | 91 | 1.6 | 3.2 | 0.00 | 0.00 | 0.00 | 77 | 1012.8 |
| 20260508020816 | 6 | 70 | 3.2 | 3.2 | 0.00 | 0.00 | 0.00 | 76 | 1012.9 |
| 20260508020314 | 6 | 44 | 0.0 | 1.6 | 0.00 | 0.00 | 0.00 | 79 | 1012.7 |
| 20260508015810 | 6 | 76 | 0.0 | 0.0 | 0.00 | 0.00 | 0.00 | 80 | 1012.8 |
| 20260508015308 | 6 | 51 | 0.0 | 1.6 | 0.00 | 0.00 | 0.00 | 79 | 1012.9 |
| 20260508014805 | 6 | 78 | 3.2 | 3.2 | 0.00 | 0.00 | 0.00 | 78 | 1012.7 |
| 20260508014302 | 6 | 103 | 0.0 | 0.0 | 0.00 | 0.00 | 0.00 | 78 | 1012.6 |
| 20260508013757 | 5 | 75 | 0.0 | 1.6 | 0.00 | 0.00 | 0.00 | 77 | 1012.8 |
| 20260508013254 | 5 | 68 | 0.0 | 1.6 | 0.00 | 0.00 | 0.00 | 76 | 1012.6 |
| 20260508012751 | 6 | 38 | 0.0 | 1.6 | 0.00 | 0.00 | 0.00 | 75 | 1012.7 |
| 20260508012248 | 6 | 89 | 0.0 | 1.6 | 0.00 | 0.00 | 0.00 | 74 | 1012.4 |
| 20260508011746 | 6 | 110 | 0.0 | 0.0 | 0.00 | 0.00 | 0.00 | 74 | 1012.4 |
| 20260508011243 | 6 | 66 | 0.0 | 0.0 | 0.00 | 0.00 | 0.00 | 73 | 1012.3 |
| 20260508010740 | 6 | 66 | 0.0 | 0.0 | 0.00 | 0.00 | 0.00 | 72 | 1012.5 |
| 20260508010238 | 7 | 66 | 0.0 | 0.0 | 0.00 | 0.00 | 0.00 | 71 | 1012.2 |
| 20260508005735 | 7 | 66 | 0.0 | 0.0 | 0.00 | 0.00 | 0.00 | 70 | 1012.2 |
| 20260508005232 | 7 | 93 | 0.0 | 0.0 | 0.00 | 0.00 | 0.00 | 69 | 1012.5 |
| 20260508004727 | 7 | 77 | 0.0 | 1.6 | 0.00 | 0.00 | 0.00 | 68 | 1012.3 |
| 20260508004224 | 7 | 38 | 0.0 | 1.6 | 0.00 | 0.00 | 0.00 | 66 | 1012.3 |
| 20260508003720 | 8 | 89 | 0.0 | 1.6 | 0.00 | 0.00 | 0.00 | 64 | 1012.2 |
| 20260508003218 | 8 | 80 | 1.6 | 1.6 | 0.00 | 0.00 | 0.00 | 63 | 1012.2 |
| 20260508002714 | 8 | 124 | 0.0 | 0.0 | 0.00 | 0.00 | 0.00 | 61 | 1012.2 |
| 20260508002212 | 9 | 60 | 0.0 | 1.6 | 0.00 | 0.00 | 0.00 | 60 | 1012.3 |
| 20260508001707 | 10 | 44 | 0.0 | 3.2 | 0.00 | 0.00 | 0.00 | 58 | 1012.0 |
| 20260508001203 | 10 | 68 | 0.0 | 3.2 | 0.00 | 0.00 | 0.00 | 55 | 1012.1 |
| 20260508000700 | 10 | 55 | 0.0 | 1.6 | 0.00 | 0.00 | 0.00 | 53 | 1012.2 |
| 20260508000157 | 10 | 73 | 6.4 | 8.0 | 0.00 | 0.00 | 0.00 | 54 | 1012.2 |
| 20260507235653 | 10 | 22 | 1.6 | 3.2 | 0.00 | 0.00 | 0.00 | 53 | 1012.1 |
| 20260507235151 | 11 | 145 | 3.2 | 3.2 | 0.00 | 0.00 | 0.00 | 52 | 1012.1 |
| 20260507234648 | 11 | 157 | 3.2 | 6.4 | 0.00 | 0.00 | 0.00 | 52 | 1012.1 |
| 20260507234144 | 11 | 55 | 3.2 | 4.8 | 0.00 | 0.00 | 0.00 | 52 | 1012.1 |
| 20260507233641 | 11 | 98 | 1.6 | 3.2 | 0.00 | 0.00 | 0.00 | 52 | 1012.2 |
| 20260507233140 | 11 | 122 | 3.2 | 8.0 | 0.00 | 0.00 | 0.00 | 50 | 1012.2 |
| 20260507232636 | 11 | 103 | 0.0 | 6.4 | 0.00 | 0.00 | 0.00 | 52 | 1012.1 |
| 20260507232133 | 11 | 53 | 3.2 | 6.4 | 0.00 | 0.00 | 0.00 | 51 | 1012.2 |
| 20260507231629 | 12 | 31 | 1.6 | 9.7 | 0.00 | 0.00 | 0.00 | 50 | 1012.2 |
| 20260507231126 | 12 | 199 | 3.2 | 6.4 | 0.00 | 0.00 | 0.00 | 50 | 1012.2 |
| 20260507230622 | 12 | 56 | 3.2 | 6.4 | 0.00 | 0.00 | 0.00 | 49 | 1012.2 |
| 20260507230120 | 12 | 105 | 3.2 | 8.0 | 0.00 | 0.00 | 0.00 | 49 | 1012.3 |
| 20260507225614 | 12 | 206 | 6.4 | 6.4 | 0.00 | 0.00 | 0.00 | 50 | 1012.3 |
| 20260507225111 | 12 | 117 | 9.7 | 9.7 | 0.00 | 0.00 | 0.00 | 50 | 1012.2 |
| 20260507224607 | 12 | 326 | 0.0 | 6.4 | 0.00 | 0.00 | 0.00 | 48 | 1012.4 |
| 20260507224104 | 12 | 95 | 0.0 | 4.8 | 0.00 | 0.00 | 0.00 | 49 | 1012.3 |
| 20260507223600 | 12 | 345 | 6.4 | 14.5 | 0.00 | 0.00 | 0.00 | 50 | 1012.4 |
| 20260507223057 | 13 | 299 | 3.2 | 6.4 | 0.00 | 0.00 | 0.00 | 47 | 1012.2 |
| 20260507222554 | 13 | 327 | 3.2 | 4.8 | 0.00 | 0.00 | 0.00 | 50 | 1012.4 |
| 20260507222050 | 13 | 317 | 6.4 | 6.4 | 0.00 | 0.00 | 0.00 | 45 | 1012.5 |
| 20260507221547 | 15 | 255 | 3.2 | 6.4 | 0.00 | 0.00 | 0.00 | 44 | 1012.3 |
| 20260507221044 | 14 | 108 | 0.0 | 8.0 | 0.00 | 0.00 | 0.00 | 47 | 1012.3 |
| 20260507220541 | 15 | 349 | 3.2 | 9.7 | 0.00 | 0.00 | 0.00 | 45 | 1012.3 |
| 20260507220038 | 15 | 242 | 0.0 | 6.4 | 0.00 | 0.00 | 0.00 | 48 | 1012.3 |
| 20260507215534 | 14 | 136 | 3.2 | 17.7 | 0.00 | 0.00 | 0.00 | 43 | 1012.4 |
| 20260507215033 | 15 | 252 | 1.6 | 12.9 | 0.00 | 0.00 | 0.00 | 43 | 1012.4 |
| 20260507214530 | 15 | 187 | 0.0 | 8.0 | 0.00 | 0.00 | 0.00 | 45 | 1012.2 |
| 20260507214025 | 15 | 166 | 3.2 | 6.4 | 0.00 | 0.00 | 0.00 | 44 | 1012.1 |
| 20260507213522 | 15 | 264 | 1.6 | 6.4 | 0.00 | 0.00 | 0.00 | 45 | 1012.3 |
| 20260507213019 | 15 | 126 | 3.2 | 11.3 | 0.00 | 0.00 | 0.00 | 42 | 1012.2 |
| 20260507212514 | 16 | 138 | 6.4 | 12.9 | 0.00 | 0.00 | 0.00 | 42 | 1012.1 |
| 20260507212011 | 16 | 102 | 3.2 | 11.3 | 0.00 | 0.00 | 0.00 | 43 | 1012.2 |
| 20260507211508 | 16 | 152 | 3.2 | 9.7 | 0.00 | 0.00 | 0.00 | 44 | 1012.0 |
| 20260507211004 | 16 | 128 | 3.2 | 6.4 | 0.00 | 0.00 | 0.00 | 44 | 1012.1 |
| 20260507210502 | 16 | 77 | 4.8 | 17.7 | 0.00 | 0.00 | 0.00 | 45 | 1012.1 |
| 20260507205958 | 16 | 57 | 3.2 | 9.7 | 0.00 | 0.00 | 0.00 | 47 | 1011.9 |
| 20260507205455 | 16 | 180 | 1.6 | 11.3 | 0.00 | 0.00 | 0.00 | 48 | 1012.0 |
| 20260507204951 | 15 | 117 | 11.3 | 12.9 | 0.00 | 0.00 | 0.00 | 47 | 1011.9 |
| 20260507204448 | 16 | 143 | 9.7 | 12.9 | 0.00 | 0.00 | 0.00 | 47 | 1012.0 |
| 20260507203946 | 16 | 120 | 8.0 | 11.3 | 0.00 | 0.00 | 0.00 | 47 | 1011.9 |
| 20260507203443 | 15 | 7 | 3.2 | 6.4 | 0.00 | 0.00 | 0.00 | 50 | 1011.9 |
| 20260507202939 | 16 | 166 | 1.6 | 9.7 | 0.00 | 0.00 | 0.00 | 51 | 1011.9 |
| 20260507202436 | 16 | 164 | 0.0 | 9.7 | 0.00 | 0.00 | 0.00 | 49 | 1012.0 |
| 20260507201932 | 15 | 112 | 3.2 | 8.0 | 0.00 | 0.00 | 0.00 | 53 | 1011.9 |
| 20260507201432 | 15 | 134 | 6.4 | 11.3 | 0.00 | 0.00 | 0.00 | 56 | 1012.1 |
| 20260507200930 | 13 | 71 | 0.0 | 4.8 | 0.00 | 0.00 | 0.00 | 60 | 1012.1 |
| 20260507200425 | 12 | 125 | 3.2 | 9.7 | 0.00 | 0.00 | 0.00 | 57 | 1012.0 |
| 20260507195921 | 12 | 35 | 1.6 | 4.8 | 0.00 | 0.00 | 0.00 | 60 | 1011.9 |
| 20260507195419 | 12 | 51 | 3.2 | 6.4 | 0.00 | 0.00 | 0.00 | 56 | 1011.9 |
| 20260507194916 | 12 | 76 | 3.2 | 9.7 | 0.00 | 0.00 | 0.00 | 57 | 1011.8 |
| 20260507194413 | 13 | 128 | 8.0 | 16.1 | 0.00 | 0.00 | 0.00 | 55 | 1011.9 |
| 20260507193909 | 12 | 128 | 9.7 | 11.3 | 0.00 | 0.00 | 0.00 | 55 | 1012.0 |
| 20260507193406 | 13 | 195 | 1.6 | 4.8 | 0.00 | 0.00 | 0.00 | 58 | 1011.9 |
| 20260507192902 | 12 | 127 | 3.2 | 17.7 | 0.00 | 0.00 | 0.00 | 56 | 1012.0 |
| 20260507192358 | 13 | 286 | 3.2 | 8.0 | 0.00 | 0.00 | 0.00 | 57 | 1011.9 |
| 20260507191855 | 13 | 94 | 3.2 | 3.2 | 0.00 | 0.00 | 0.00 | 59 | 1012.0 |
| 20260507191351 | 13 | 157 | 0.0 | 9.7 | 0.00 | 0.00 | 0.00 | 55 | 1012.1 |
| 20260507190848 | 13 | 131 | 8.0 | 8.0 | 0.00 | 0.00 | 0.00 | 55 | 1012.2 |
| 20260507190346 | 13 | 86 | 3.2 | 4.8 | 0.00 | 0.00 | 0.00 | 55 | 1012.2 |
| 20260507185845 | 13 | 325 | 4.8 | 8.0 | 0.00 | 0.00 | 0.00 | 56 | 1012.0 |
| 20260507185342 | 13 | 328 | 6.4 | 6.4 | 0.00 | 0.00 | 0.00 | 52 | 1012.1 |
| 20260507184839 | 16 | 130 | 6.4 | 6.4 | 0.00 | 0.00 | 0.00 | 48 | 1012.3 |
| 20260507184337 | 14 | 45 | 1.6 | 9.7 | 0.00 | 0.00 | 0.00 | 55 | 1012.2 |
| 20260507183833 | 14 | 120 | 3.2 | 11.3 | 0.00 | 0.00 | 0.00 | 51 | 1012.3 |
| 20260507183330 | 13 | 61 | 0.0 | 8.0 | 0.00 | 0.00 | 0.00 | 58 | 1012.3 |
| 20260507182828 | 13 | 359 | 3.2 | 6.4 | 0.00 | 0.00 | 0.00 | 53 | 1012.3 |
| 20260507182323 | 15 | 25 | 0.0 | 8.0 | 0.00 | 0.00 | 0.00 | 52 | 1012.0 |
| 20260507181820 | 15 | 64 | 1.6 | 4.8 | 0.00 | 0.00 | 0.00 | 56 | 1012.2 |
| 20260507181316 | 12 | 9 | 3.2 | 8.0 | 0.00 | 0.00 | 0.00 | 54 | 1012.2 |
| 20260507180813 | 13 | 16 | 4.8 | 8.0 | 0.00 | 0.00 | 0.00 | 54 | 1012.3 |
| 20260507180310 | 13 | 297 | 4.8 | 12.9 | 0.00 | 0.00 | 0.00 | 53 | 1012.4 |
| 20260507175805 | 15 | 352 | 9.7 | 9.7 | 0.00 | 0.00 | 0.00 | 52 | 1012.1 |
| 20260507175306 | 15 | 184 | 3.2 | 4.8 | 0.00 | 0.00 | 0.00 | 57 | 1012.3 |
| 20260507174759 | 12 | 349 | 6.4 | 6.4 | 0.00 | 0.00 | 0.00 | 58 | 1012.3 |
| 20260507174257 | 13 | 5 | 0.0 | 8.0 | 0.00 | 0.00 | 0.00 | 56 | 1012.4 |
| 20260507173755 | 13 | 24 | 3.2 | 8.0 | 0.00 | 0.00 | 0.00 | 57 | 1012.4 |
| 20260507173252 | 13 | 132 | 1.6 | 9.7 | 0.00 | 0.00 | 0.00 | 56 | 1012.3 |
| 20260507172748 | 13 | 269 | 0.0 | 8.0 | 0.00 | 0.00 | 0.00 | 60 | 1012.4 |
| 20260507172245 | 13 | 120 | 3.2 | 4.8 | 0.00 | 0.00 | 0.00 | 57 | 1012.4 |
| 20260507171740 | 13 | 285 | 0.0 | 8.0 | 0.00 | 0.00 | 0.00 | 57 | 1012.5 |
| 20260507171238 | 14 | 108 | 6.4 | 16.1 | 0.00 | 0.00 | 0.00 | 54 | 1012.4 |
| 20260507170734 | 12 | 176 | 3.2 | 6.4 | 0.00 | 0.00 | 0.00 | 58 | 1012.6 |
| 20260507170226 | 13 | 213 | 4.8 | 6.4 | 0.00 | 0.00 | 0.00 | 57 | 1012.5 |
| 20260507165721 | 15 | 2 | 3.2 | 6.4 | 0.00 | 0.00 | 0.00 | 53 | 1012.6 |
| 20260507165217 | 15 | 347 | 0.0 | 4.8 | 0.00 | 0.00 | 0.00 | 52 | 1012.5 |
| 20260507164714 | 14 | 173 | 3.2 | 8.0 | 0.00 | 0.00 | 0.00 | 58 | 1012.5 |
| 20260507164212 | 15 | 161 | 3.2 | 6.4 | 0.00 | 0.00 | 0.00 | 51 | 1012.7 |
| 20260507163708 | 15 | 3 | 1.6 | 6.4 | 0.00 | 0.00 | 0.00 | 59 | 1012.4 |
| 20260507163206 | 13 | 335 | 3.2 | 6.4 | 0.00 | 0.00 | 0.00 | 53 | 1012.5 |
| 20260507162702 | 14 | 21 | 6.4 | 9.7 | 0.00 | 0.00 | 0.00 | 56 | 1012.3 |
| 20260507162158 | 15 | 344 | 8.0 | 9.7 | 0.00 | 0.00 | 0.00 | 53 | 1012.5 |
| 20260507161654 | 13 | 170 | 4.8 | 8.0 | 0.00 | 0.00 | 0.00 | 53 | 1012.4 |
| 20260507161151 | 14 | 17 | 6.4 | 8.0 | 0.00 | 0.00 | 0.00 | 54 | 1012.6 |
| 20260507160647 | 14 | 16 | 3.2 | 8.0 | 0.00 | 0.00 | 0.00 | 58 | 1012.6 |
| 20260507160144 | 15 | 35 | 3.2 | 4.8 | 0.00 | 0.00 | 0.00 | 56 | 1012.7 |
| 20260507155639 | 13 | 57 | 1.6 | 6.4 | 0.00 | 0.00 | 0.00 | 54 | 1012.7 |
| 20260507155136 | 14 | 134 | 1.6 | 4.8 | 0.00 | 0.00 | 0.00 | 53 | 1012.8 |
| 20260507154632 | 13 | 180 | 3.2 | 4.8 | 0.00 | 0.00 | 0.00 | 57 | 1012.7 |
| 20260507154131 | 11 | 354 | 3.2 | 6.4 | 0.00 | 0.00 | 0.00 | 58 | 1012.5 |
| 20260507153626 | 11 | 14 | 3.2 | 8.0 | 0.00 | 0.00 | 0.00 | 61 | 1012.7 |
| 20260507153123 | 12 | 329 | 4.8 | 8.0 | 0.00 | 0.00 | 0.00 | 60 | 1012.7 |
| 20260507152620 | 13 | 39 | 1.6 | 6.4 | 0.00 | 0.00 | 0.00 | 64 | 1012.7 |
| 20260507152116 | 12 | 358 | 6.4 | 8.0 | 0.00 | 0.00 | 0.00 | 58 | 1012.7 |
| 20260507151612 | 13 | 10 | 6.4 | 8.0 | 0.00 | 0.00 | 0.00 | 59 | 1012.6 |
| 20260507151109 | 13 | 28 | 6.4 | 12.9 | 0.00 | 0.00 | 0.00 | 61 | 1012.7 |
| 20260507150606 | 13 | 63 | 3.2 | 8.0 | 0.00 | 0.00 | 0.00 | 64 | 1012.8 |
| 20260507145557 | 12 | 19 | 4.8 | 12.9 | 0.00 | 0.00 | 0.00 | 65 | 1012.6 |
| 20260507145055 | 12 | 331 | 4.8 | 8.0 | 0.00 | 0.00 | 0.00 | 67 | 1012.9 |
| 20260507144551 | 13 | 316 | 4.8 | 6.4 | 0.00 | 0.00 | 0.00 | 68 | 1012.8 |
| 20260507144050 | 12 | 204 | 1.6 | 8.0 | 0.00 | 0.00 | 0.00 | 65 | 1012.7 |
| 20260507143546 | 12 | 305 | 4.8 | 6.4 | 0.00 | 0.00 | 0.00 | 70 | 1012.8 |
| 20260507143044 | 12 | 30 | 4.8 | 9.7 | 0.00 | 0.00 | 0.00 | 69 | 1012.8 |
| 20260507142538 | 11 | 10 | 6.4 | 9.7 | 0.00 | 0.00 | 0.00 | 68 | 1012.6 |
| 20260507142036 | 11 | 351 | 4.8 | 9.7 | 0.00 | 0.00 | 0.00 | 70 | 1012.8 |
| 20260507141532 | 11 | 37 | 3.2 | 9.7 | 0.00 | 0.00 | 0.00 | 70 | 1012.6 |
| 20260507141029 | 11 | 241 | 4.8 | 8.0 | 0.00 | 0.00 | 0.00 | 69 | 1012.9 |
| 20260507140526 | 11 | 357 | 6.4 | 8.0 | 0.00 | 0.00 | 0.00 | 69 | 1012.9 |
| 20260507140023 | 11 | 11 | 3.2 | 6.4 | 0.00 | 0.00 | 0.00 | 71 | 1012.9 |
| 20260507135520 | 11 | 1 | 6.4 | 11.3 | 0.00 | 0.00 | 0.00 | 70 | 1013.1 |
| 20260507135017 | 10 | 33 | 3.2 | 6.4 | 0.00 | 0.00 | 0.00 | 71 | 1013.0 |
| 20260507134514 | 10 | 6 | 4.8 | 9.7 | 0.00 | 0.00 | 0.00 | 71 | 1013.1 |
| 20260507134009 | 10 | 339 | 3.2 | 8.0 | 0.00 | 0.00 | 0.00 | 72 | 1013.0 |
| 20260507133505 | 10 | 17 | 4.8 | 8.0 | 0.00 | 0.00 | 0.00 | 71 | 1013.0 |
| 20260507133004 | 10 | 32 | 0.0 | 6.4 | 0.00 | 0.00 | 0.00 | 74 | 1013.1 |
| 20260507132500 | 10 | 331 | 3.2 | 8.0 | 0.00 | 0.00 | 0.00 | 74 | 1013.1 |
| 20260507131956 | 10 | 14 | 3.2 | 8.0 | 0.00 | 0.00 | 0.00 | 74 | 1013.1 |
| 20260507131453 | 10 | 18 | 8.0 | 8.0 | 0.00 | 0.00 | 0.00 | 74 | 1013.2 |
| 20260507130950 | 9 | 353 | 3.2 | 8.0 | 0.00 | 0.00 | 0.00 | 76 | 1013.1 |
| 20260507130447 | 9 | 21 | 6.4 | 6.4 | 0.00 | 0.00 | 0.00 | 76 | 1013.1 |